SCP
0 0 1 1 1 1 1 0 0 0 0 0 0 0 0 0 0 0 0 0 0 0 0 0 0 0 0 0 0 0 0 0 0 0 0 0 0 0 0 0 0 0 0
0 0 1 1 1 1 1 0 0 0 0 0 0 0 0 0 0 0 0 0 0 0 0 0 0 0 0 0 0 0 0 0 0 0 0 0 0 0 0 0 0 0 0
0 0 1 1 1 1 1 1 0 0 0 0 0 0 0 0 0 0 0 0 0 0 0 0 0 0 0 0 0 0 0 0 0 0 0 0 0 0 0 0 0 0 0
0 0 1 1 1 1 1 1 1 0 0 0 0 0 0 0 0 0 0 0 0 0 0 0 0 0 0 0 0 0 0 0 0 0 0 0 0 0 0 0 0 0 0
0 0 1 1 1 1 1 1 1 1 0 0 0 0 0 0 0 0 0 0 0 0 0 0 0 0 0 0 0 0 0 0 0 0 0 0 0 0 0 0 0 0 0
0 0 1 1 1 1 1 1 1 1 0 0 0 0 0 0 0 0 0 0 0 0 0 0 0 0 0 0 0 0 0 0 0 0 0 0 0 0 0 0 0 0 0
1 1 1 1 1 1 1 1 1 1 0 0 0 0 0 0 0 0 0 0 0 0 0 0 0 0 0 0 0 0 0 0 0 0 0 0 0 0 0 0 0 0 0
1 1 1 1 1 1 1 1 1 1 1 0 0 0 0 0 0 0 0 0 0 0 0 0 0 0 0 0 0 0 0 0 0 0 0 0 0 0 0 0 0 0 0
1 1 1 1 1 1 1 1 1 1 1 0 0 0 0 0 0 0 0 0 0 0 0 0 0 0 0 0 0 0 0 0 0 0 0 0 0 0 0 0 0 0 0
1 1 1 1 1 1 1 1 1 1 1 0 0 0 0 0 0 0 0 0 0 0 0 0 0 0 0 0 0 0 0 0 0 0 0 0 0 0 0 0 0 0 0
1 1 1 1 1 1 1 1 1 1 1 0 0 0 0 0 0 0 0 0 0 0 0 0 0 0 0 0 0 0 0 0 0 0 0 0 0 0 0 0 0 0 0
1 1 1 1 1 1 1 1 1 1 1 0 0 0 0 0 0 0 0 0 0 0 0 0 0 0 0 0 0 0 0 0 0 0 0 0 0 0 0 0 0 0 0
1 1 1 1 1 1 1 1 1 1 1 0 0 0 0 0 0 0 0 0 0 0 0 0 0 0 0 0 0 0 0 0 0 0 0 0 0 0 0 0 0 0 0
1 1 1 1 1 1 1 1 1 1 1 0 0 0 0 0 0 0 0 0 0 0 0 0 0 0 0 0 0 0 0 0 0 0 0 0 0 0 0 0 0 0 0
1 1 1 1 1 1 1 1 1 1 1 0 0 0 0 0 0 0 0 0 0 0 0 0 0 0 0 0 0 0 0 0 0 0 0 0 0 0 0 0 0 0 0
1 1 1 1 1 1 1 1 1 1 1 0 0 0 0 0 0 0 0 0 0 0 0 0 0 0 0 0 0 0 0 0 0 0 0 0 0 0 0 0 0 0 0
1 1 1 1 1 1 1 1 1 1 0 0 0 0 0 0 0 0 0 0 0 0 0 0 0 0 0 0 0 0 0 0 0 0 0 0 0 0 0 0 0 0 0
1 1 1 1 1 1 1 1 1 1 0 0 0 0 0 0 0 0 0 0 0 0 0 0 0 0 0 0 0 0 0 0 0 0 0 0 0 0 0 0 0 0 0
1 1 1 1 1 1 1 1 1 1 0 0 0 0 0 0 0 0 0 0 0 0 0 0 0 0 0 0 0 0 0 0 0 0 0 0 0 0 0 0 0 0 0
1 1 1 1 1 1 1 1 1 1 0 0 0 0 0 0 0 0 0 0 0 0 0 0 0 0 0 0 0 0 0 0 0 0 0 0 0 0 0 0 0 0 0
1 1 1 1 1 1 1 1 1 1 0 0 0 0 0 0 0 0 0 0 0 0 0 0 0 0 0 0 0 0 0 0 0 0 0 0 0 0 0 0 0 0 0
0 0 1 1 1 1 1 1 1 1 0 0 0 0 0 0 0 0 0 0 0 0 0 0 0 0 0 0 0 0 0 0 0 0 0 0 0 0 0 0 0 0 0
0 0 0 0 0 0 0 0 0 0 0 0 0 0 0 0 0 0 0 0 0 0 0 0 0 0 0 0 0 0 0 0 0 0 0 0 0 0 0 0 0 0 0
0 0 0 0 0 0 0 0 0 0 0 0 0 0 0 0 0 0 0 0 0 0 0 0 0 0 0 0 0 0 0 0 0 0 0 0 0 0 0 0 0 0 0
0 0 0 0 0 0 0 0 0 0 0 0 0 0 0 0 0 0 0 0 0 0 0 0 0 0 0 0 0 0 0 0 0 0 0 0 0 0 0 0 0 0 0
0 0 0 0 0 0 0 0 0 0 0 0 0 0 0 0 0 0 0 0 0 0 0 0 0 0 0 0 0 0 0 0 0 0 0 0 0 0 0 0 0 0 0
Wind_Speed
6 8 14 15 15 15 15 15 15 15 15 15 15 15 14 14 14 14 14 13 13 12 12 12 12 11 11 11 11 11 11 11 11 11 11 11 11 11 11 11 11 8 12
11 10 14 15 15 15 15 15 15 14 14 14 14 14 14 13 13 13 13 12 11 12 12 11 11 11 11 10 10 10 10 9 9 9 9 8 9 10 10 10 10 7 11
13 10 13 15 15 15 15 15 15 14 14 14 13 13 13 13 12 12 12 11 10 10 11 10 10 9 9 9 9 8 9 8 7 7 6 3 5 8 9 10 10 11 11
13 10 12 16 16 16 15 14 14 14 14 13 13 12 12 12 11 11 11 10 9 9 10 10 9 8 8 7 7 7 7 6 6 6 3 2 3 7 8 9 9 10 10
10 9 12 17 16 16 15 15 14 14 14 13 12 12 11 11 10 10 10 10 9 9 9 9 8 7 7 6 6 5 6 6 5 4 3 2 2 6 8 9 9 9 9
10 8 11 16 16 16 16 15 15 14 13 13 12 11 11 10 10 9 9 9 8 8 8 8 8 6 6 5 5 4 5 5 5 3 2 2 2 6 8 9 9 9 9
9 8 10 15 16 15 15 15 14 14 13 12 11 11 11 10 9 9 8 8 8 8 7 7 7 6 5 4 4 4 4 5 3 2 1 2 3 7 8 9 8 8 8
11 9 9 15 16 15 15 14 13 13 12 12 11 10 10 10 9 8 8 8 8 7 7 6 6 6 5 4 3 4 4 4 3 2 1 2 5 8 9 9 8 8 8
10 9 7 7 10 14 14 13 12 12 11 11 11 10 10 10 10 9 9 8 8 7 7 6 6 5 4 3 3 3 3 4 2 1 2 1 5 8 9 10 9 8 7
8 7 7 6 6 6 8 12 13 11 11 11 11 11 10 10 10 9 8 8 8 7 6 5 5 4 4 3 3 3 3 3 1 1 1 2 6 8 9 10 9 8 8
8 6 6 6 6 5 6 9 9 10 10 9 8 9 8 4 4 5 7 8 8 6 6 5 4 4 3 3 3 3 2 1 2 1 1 4 7 8 9 9 8 8 8
9 8 7 7 7 6 6 5 4 5 5 4 3 4 3 3 3 4 6 7 6 6 5 5 4 3 2 1 2 2 1 2 1 1 2 6 7 7 8 8 8 8 7
10 9 7 7 7 6 4 4 3 2 3 3 3 4 3 3 2 2 2 2 2 3 1 2 1 1 1 1 1 1 2 2 1 1 2 5 6 6 7 8 8 8 7
8 8 8 7 7 6 5 4 4 3 3 3 3 4 3 2 3 2 2 2 1 1 1 1 0 0 0 1 2 2 3 2 2 1 3 6 6 6 7 8 8 8 7
9 8 8 8 7 6 5 4 5 4 4 3 3 4 4 4 3 3 2 2 2 1 2 1 1 1 1 1 1 2 3 3 3 2 2 6 6 6 7 8 8 8 7
9 8 7 7 7 6 5 5 5 5 4 3 3 4 5 4 4 3 3 2 1 1 1 2 2 2 1 1 1 2 2 3 3 3 2 3 6 6 6 6 7 7 7
9 8 8 8 7 7 6 5 5 4 5 4 3 4 5 4 4 4 3 2 2 1 1 1 1 1 1 1 1 1 2 2 3 3 2 2 2 5 6 6 6 7 8
8 8 8 8 7 6 5 5 4 4 4 4 4 4 5 5 5 4 3 2 2 2 1 2 1 1 1 1 1 1 1 2 2 3 2 2 2 2 3 5 6 6 7
8 8 7 7 7 6 5 4 4 4 4 3 3 3 4 5 5 4 3 2 3 2 1 1 1 1 1 1 1 1 1 2 2 3 2 3 2 2 2 4 6 6 7
7 7 7 6 6 5 4 3 3 3 2 2 3 3 5 4 5 4 3 3 3 2 1 1 1 1 1 1 1 0 1 1 1 2 3 3 3 3 3 3 3 4 7
6 6 7 6 5 5 4 4 3 3 3 2 2 4 5 4 4 4 3 3 3 2 2 2 1 1 1 1 2 1 2 1 2 2 2 2 3 3 3 3 3 2 3
7 6 6 6 6 5 4 3 3 3 3 3 2 3 4 5 4 4 3 3 3 2 2 1 2 1 1 1 2 2 1 3 3 2 2 2 3 2 3 4 3 3 3
6 6 6 6 6 5 5 3 3 2 2 1 2 2 3 4 4 4 4 3 3 3 2 2 2 3 2 1 2 3 3 3 2 3 2 2 2 2 3 3 4 4 4
7 6 5 5 5 5 5 5 5 4 3 3 3 3 3 3 4 4 4 4 3 3 3 3 3 2 3 2 1 1 2 3 2 2 2 2 2 3 3 3 3 3 4
7 6 5 5 4 4 5 5 5 3 2 2 2 3 2 2 3 3 4 3 3 3 3 3 2 2 2 3 2 1 1 1 2 2 2 2 2 2 3 3 3 3 4
5 5 6 6 4 4 4 5 5 5 4 4 3 3 2 1 1 2 3 3 3 3 3 3 3 3 3 2 2 2 2 2 2 2 3 2 2 3 2 2 3 3 4
Wind_Direction
149 154 139 130 124 122 120 117 114 112 110 108 106 104 102 102 103 105 107 109 111 111 110 109 107 105 105 109 114 115 116 117 120 123 124 125 123 124 127 129 124 123 127
150 150 139 133 128 126 124 121 119 116 114 112 111 110 110 109 108 109 110 111 113 113 111 109 108 107 107 109 112 114 117 118 122 126 125 125 127 129 134 133 128 133 137
142 144 140 135 132 130 128 126 123 121 119 117 118 118 117 116 114 114 114 114 116 117 115 113 111 109 107 107 107 109 112 117 120 125 122 114 126 132 136 136 135 136 140
142 145 142 139 136 134 132 130 129 127 126 125 126 125 124 122 120 120 120 120 118 118 118 118 116 113 109 106 105 103 105 109 118 119 113 114 134 137 139 140 139 140 141
138 143 146 142 140 139 137 136 135 133 132 131 131 132 130 127 125 124 125 125 122 120 122 120 118 115 112 109 105 101 98 99 108 103 109 119 135 146 143 141 142 142 143
138 143 147 144 143 143 143 142 141 140 139 138 137 138 137 135 134 132 132 132 130 128 126 125 123 121 122 117 109 101 96 102 99 87 104 133 146 155 150 146 144 144 143
141 145 148 147 146 146 146 147 147 146 145 144 143 143 143 143 141 139 140 138 138 137 135 135 135 139 141 133 127 115 103 107 102 101 119 151 158 158 152 149 148 147 144
147 147 151 153 152 150 150 150 150 151 151 149 149 150 151 151 150 148 147 145 143 142 146 148 148 153 153 148 142 128 118 115 108 105 113 148 151 152 154 153 151 148 148
141 141 144 150 152 152 151 152 153 153 156 156 156 158 159 160 158 157 156 155 153 153 156 159 158 160 163 162 157 136 123 125 116 137 145 143 152 153 153 152 151 152 149
129 135 140 143 145 149 152 157 156 159 160 161 164 165 167 168 167 168 165 163 163 165 167 168 168 170 173 173 161 140 131 126 127 136 153 153 149 150 151 153 157 159 158
139 143 148 149 149 153 155 160 160 163 165 164 166 170 168 170 173 172 175 173 174 174 176 179 180 179 181 176 169 153 142 135 139 144 166 152 157 159 157 158 160 162 164
156 158 155 155 157 158 161 151 157 163 162 159 161 163 158 161 174 173 180 179 178 179 185 187 180 181 171 152 165 157 136 139 149 168 153 147 154 158 158 156 157 159 161
162 160 160 162 161 160 154 152 159 159 153 155 161 159 152 148 155 157 155 168 169 169 174 188 183 185 173 158 166 152 148 148 158 164 156 150 154 158 164 166 165 166 168
154 164 162 162 159 160 155 157 153 155 154 160 164 158 147 142 139 145 149 149 137 145 152 154 169 190 202 170 166 156 153 155 157 164 171 159 163 168 172 177 174 176 179
152 163 166 161 158 156 155 163 153 156 158 160 157 156 149 148 149 147 147 146 162 164 170 184 184 193 183 172 166 159 162 164 163 171 171 164 169 178 180 181 182 184 186
154 158 163 160 161 156 158 161 155 155 152 152 160 162 154 151 153 151 145 148 168 178 181 178 176 175 179 174 172 163 164 162 164 172 176 177 175 180 187 188 191 189 192
158 156 157 161 160 156 155 159 154 154 153 159 170 166 155 153 152 149 148 161 181 174 146 131 129 130 146 159 190 173 164 164 158 172 179 182 184 186 187 192 195 198 201
153 155 160 154 148 148 148 149 148 150 152 164 171 168 159 157 151 146 154 163 163 142 134 135 126 116 119 147 202 203 168 168 173 179 180 183 188 199 197 196 195 198 203
150 151 151 146 148 147 144 143 144 144 153 161 160 156 158 154 153 151 162 164 151 138 145 163 135 132 142 179 215 182 179 191 200 192 188 191 197 201 204 206 201 204 206
144 144 143 141 143 143 139 127 123 120 134 142 152 158 156 155 155 150 157 156 149 142 148 146 142 148 158 177 198 105 230 220 214 204 207 201 202 205 204 210 210 217 213
137 137 143 143 144 141 145 150 145 156 163 159 168 161 153 149 146 147 150 148 154 160 170 171 162 154 171 118 83 20 340 297 248 223 211 203 210 210 201 210 217 222 223
148 144 145 152 154 157 156 161 157 156 170 173 170 155 160 152 151 152 148 154 162 154 146 159 145 139 158 133 132 115 358 328 300 256 236 209 215 215 211 213 209 208 217
151 160 163 160 157 155 147 126 113 95 90 112 135 157 172 161 156 156 163 164 168 164 176 189 172 158 167 210 156 150 160 221 273 293 254 227 212 212 225 218 207 203 204
167 163 160 159 154 150 145 147 149 155 167 182 175 177 175 170 167 167 172 178 177 175 179 192 179 172 161 188 225 180 173 172 176 276 303 274 237 223 223 225 219 217 208
162 155 153 144 145 150 150 153 150 153 166 162 155 159 168 181 184 182 177 180 186 188 189 189 186 184 178 180 184 179 171 189 171 177 252 287 292 253 228 224 219 221 211
145 146 145 141 145 152 158 160 157 160 159 154 164 168 174 185 202 197 184 187 191 194 197 196 194 195 197 190 184 180 177 185 197 182 215 240 259 270 254 237 223 219 214